{"data":{"norad_id":67449,"intl_designator":"2026-008E","name":"STARLINK-36519","alt_names":[],"object_type":"PAYLOAD","status":"ACTIVE","operator":null,"country":"US","launch_date":"2026-01-14","launch_site_code":"AFETR","launch_vehicle":null,"mission":null,"orbit_class":"UNKNOWN","rcs_meters":null,"size_class":null,"mass_kg":null,"dimensions":null,"purposes":["comms"],"wikipedia_slug":null,"has_3d_model":false,"image_url":null,"decayed_at":null,"tle_current":{"epoch":"2026-05-25T00:22:31.448928Z","epoch_age_seconds":70356,"freshness":"FRESH","line1":"1 67449U 26008E   26145.01564177  .00016767  00000+0  61718-3 0  9997","line2":"2 67449  42.9964 134.3139 0000807 259.6949 100.3812 15.27593692 21242","mean_motion":15.27593692,"eccentricity":8.07e-5,"inclination_deg":42.9964,"raan_deg":134.3139,"arg_perigee_deg":259.6949,"mean_anomaly_deg":100.3812,"bstar":0.00061718,"rev_number":2124,"period_min":94.265903789815,"perigee_km":482.45440316284,"apogee_km":483.56179198159,"semimajor_km":6861.1450975722,"source":"CELESTRAK","updated_at":"2026-05-25T13:38:21.559899Z"}}}